Wind_Speed
8 7 7 5 5 5 4 3 3 3 4 5 5 6 7 7 8 8 8 8 7 7 10 13 14 15 14 15 16 18 19 19 19 19 19 20 20 19 18 16 15 13 11 10 9 8 7 6 6 5 5 4 4 4 3 3 4 4 3 3 3 2 1 2 1 1 1 1 2 2 1 3 5 6 7 6 6 6 8 9 9 8 10 9 9
9 8 8 7 6 5 4 3 3 2 3 5 4 5 7 7 8 9 10 11 9 9 11 14 14 15 15 15 16 18 19 19 20 20 19 18 18 17 16 14 13 11 10 9 8 7 6 6 5 4 4 3 3 3 3 2 3 2 3 3 3 3 3 3 3 2 2 1 1 1 2 2 3 3 5 5 4 5 7 7 6 7 8 9 10
10 9 9 8 7 6 5 3 2 1 2 4 4 4 6 8 8 9 10 12 11 10 12 14 15 15 15 15 15 16 17 18 18 18 17 16 15 14 13 12 11 10 8 7 7 6 5 5 4 3 3 3 3 3 3 3 2 2 3 3 3 3 4 4 4 3 3 2 2 3 2 2 4 3 4 5 4 6 7 6 7 8 9 10 11
11 10 9 9 9 7 6 4 2 1 1 4 4 4 6 7 9 9 9 11 12 12 12 14 15 15 15 16 15 14 15 15 15 14 14 13 13 12 11 10 9 8 7 6 5 5 4 4 3 3 2 2 2 3 2 2 3 3 3 4 4 4 5 5 5 4 4 2 1 3 3 2 5 4 3 4 6 8 8 8 8 8 9 11 10
12 12 11 11 10 8 7 5 3 2 1 4 5 5 5 7 9 10 10 10 11 11 11 11 13 13 14 14 13 12 13 13 12 12 11 11 11 10 9 8 7 7 6 5 4 4 4 3 3 3 3 2 2 2 2 2 3 3 3 3 3 4 5 6 5 4 5 4 2 4 4 3 4 4 2 4 6 7 8 9 8 6 7 9 9
14 13 12 11 10 10 8 6 4 3 2 4 6 6 6 7 9 10 10 10 10 11 10 10 10 11 12 12 11 11 10 10 9 9 10 9 9 8 8 7 6 6 5 4 4 4 4 4 3 3 4 3 2 2 3 4 3 3 2 3 3 3 4 6 6 5 6 5 5 6 5 4 5 4 4 5 6 5 5 8 9 8 7 8 8
15 13 13 12 12 11 9 7 6 5 4 4 6 7 7 8 9 10 11 10 10 10 10 9 9 9 9 10 9 9 8 8 7 7 8 7 7 7 7 7 6 6 5 4 4 4 5 5 4 4 4 4 4 3 3 3 3 2 2 2 4 3 3 4 6 6 6 6 6 6 5 6 7 6 4 5 5 5 6 7 8 9 9 8 7
16 14 14 14 13 12 11 9 8 6 5 5 7 8 8 8 9 10 11 11 10 10 10 10 9 9 8 8 8 8 7 6 6 6 6 5 5 5 6 6 6 6 6 5 4 5 5 5 5 5 5 4 4 4 4 3 3 3 3 3 4 4 3 3 4 4 5 6 7 6 6 7 7 6 5 5 6 6 7 6 5 8 9 7 5
17 15 15 16 16 14 13 11 10 8 7 7 8 9 10 10 10 10 10 11 11 11 11 10 10 8 8 7 7 7 6 5 5 5 5 4 3 3 4 5 6 6 6 6 6 6 5 6 6 6 6 5 4 4 4 4 4 4 3 3 3 4 4 4 4 3 4 6 6 5 6 7 7 6 5 5 5 6 7 6 6 7 6 5 5
17 17 17 18 18 16 15 13 12 10 9 9 9 10 11 12 11 11 10 11 11 11 11 11 10 9 8 8 7 6 6 5 5 4 4 3 3 3 4 5 5 5 6 6 6 7 6 6 6 6 6 5 4 5 4 5 5 4 3 2 2 3 4 4 4 4 5 6 5 4 5 5 5 5 5 4 3 4 6 5 7 5 4 5 7
19 19 19 20 20 18 16 15 13 12 11 11 10 11 13 13 13 12 11 11 12 11 11 11 11 10 9 7 6 6 5 5 5 4 4 3 3 3 3 4 5 6 6 6 7 7 7 7 7 7 6 5 5 5 5 5 5 4 3 3 2 3 3 3 3 3 4 4 4 4 4 2 4 5 5 4 3 6 6 3 6 6 5 6 8
19 22 21 20 21 20 18 17 15 14 14 12 12 12 13 14 14 14 13 12 12 12 11 11 10 10 8 7 6 5 5 4 4 4 4 3 3 2 3 4 5 6 6 6 7 7 7 7 6 7 7 6 5 5 5 5 5 4 4 3 3 2 2 2 1 2 2 3 3 4 3 2 4 5 3 3 3 6 6 3 5 6 5 7 9
18 22 23 21 21 21 20 19 17 16 15 14 13 13 14 15 15 16 15 14 13 13 12 11 10 10 8 8 7 6 6 5 4 3 3 2 2 2 2 3 3 4 5 5 6 6 6 5 5 6 6 6 6 5 5 5 4 4 3 3 3 2 2 1 1 1 1 1 3 4 2 2 4 4 3 4 3 5 5 5 5 6 5 7 9
16 20 24 23 22 22 22 20 19 18 17 16 15 14 15 15 16 17 16 16 15 14 13 12 11 10 9 9 8 7 7 5 4 3 2 1 1 1 1 2 2 2 3 4 4 5 5 5 5 5 5 6 5 5 5 5 4 4 4 3 3 2 2 2 1 1 1 1 4 4 1 1 3 3 3 4 4 5 6 5 4 5 6 7 9
17 19 24 25 23 24 24 23 21 20 19 19 17 16 16 16 17 18 18 18 17 16 15 13 12 11 10 10 9 9 8 6 5 3 2 1 0 0 0 1 2 2 2 3 4 4 5 5 5 5 5 5 5 5 5 5 4 4 4 3 3 3 3 2 2 1 1 3 4 4 2 2 2 2 2 4 4 5 6 4 3 5 6 7 8
19 19 22 26 26 25 25 24 23 22 21 21 19 17 18 17 17 18 19 19 18 17 16 15 14 12 11 11 10 10 9 7 6 4 3 2 2 1 1 1 2 2 3 3 3 4 4 4 4 5 5 5 5 5 4 4 4 3 3 3 3 2 2 1 1 1 1 2 3 3 2 1 1 2 2 4 4 3 5 5 4 5 7 7 7
21 19 21 27 28 25 26 25 23 22 22 23 21 19 20 20 19 19 19 20 19 19 18 17 15 14 13 12 12 11 10 8 7 6 4 4 3 3 2 2 3 3 3 3 3 3 4 4 3 3 3 3 3 3 3 2 2 2 2 2 2 2 2 2 2 2 1 1 1 2 1 1 2 3 3 3 2 3 5 6 5 6 7 6 6
23 21 22 28 30 26 26 25 24 23 23 24 23 22 22 21 20 20 20 21 21 20 19 19 18 17 15 14 13 12 11 10 9 8 7 6 5 4 4 3 4 4 4 4 4 3 3 3 3 2 2 1 1 0 1 1 2 2 3 3 2 2 3 3 4 3 2 2 1 1 1 2 3 3 3 3 3 3 5 6 5 6 5 6 7
24 24 23 27 30 28 25 26 26 25 24 24 24 23 23 23 22 21 21 21 21 21 20 20 19 19 18 16 15 14 13 12 11 10 9 8 6 6 5 5 5 5 6 5 5 5 4 4 4 3 3 3 3 3 3 3 4 4 5 5 5 4 4 5 5 5 5 4 3 1 1 3 3 3 3 3 3 3 4 5 6 6 5 6 7
24 26 25 27 30 29 26 26 27 26 26 26 25 24 24 24 23 22 22 21 21 21 21 21 21 20 20 19 17 16 15 14 13 12 11 10 9 8 7 7 7 7 7 7 7 7 6 6 6 5 5 5 5 5 5 5 5 5 5 6 6 6 6 6 6 7 6 5 3 2 2 3 4 3 3 3 3 3 4 5 5 4 3 5 5
23 25 26 29 32 32 29 27 27 26 27 27 25 24 24 25 24 23 23 22 22 22 22 22 22 21 21 20 19 18 17 16 15 14 13 11 11 10 9 9 8 8 8 8 8 8 8 8 8 7 7 7 7 6 6 6 6 6 6 6 6 7 7 7 7 8 7 6 5 3 3 3 3 3 3 3 2 2 2 3 4 3 1 2 3
21 24 26 29 32 34 33 30 27 27 27 27 26 26 25 25 25 25 24 23 23 23 23 23 23 22 22 21 20 19 18 17 17 16 15 14 13 12 11 11 10 10 10 9 9 9 9 9 9 9 9 8 8 7 7 7 6 6 6 6 7 7 7 7 7 8 8 7 6 5 4 3 3 3 3 3 2 1 2 2 3 5 4 2 3
19 22 26 28 32 36 36 33 30 28 28 27 27 28 27 25 25 26 25 24 24 24 24 23 23 22 22 21 20 20 19 18 18 17 16 16 15 14 13 13 12 12 11 11 10 10 10 10 10 10 10 9 9 9 8 8 7 7 7 7 7 7 7 7 7 8 8 7 7 6 5 5 5 4 3 4 3 2 2 3 4 5 6 4 4
22 21 23 25 28 35 37 34 32 30 28 28 30 30 29 28 28 26 26 25 25 25 25 24 23 22 21 21 20 19 19 19 18 18 17 17 17 16 15 15 14 13 13 12 12 12 11 12 11 11 10 10 10 10 10 9 8 8 8 7 7 7 7 7 8 8 8 7 7 7 8 8 7 6 6 5 5 4 4 5 5 5 6 6 5
24 23 23 23 24 28 32 31 32 32 31 30 32 33 31 31 31 28 27 27 26 26 25 25 25 23 22 21 20 19 19 18 18 18 18 18 18 17 16 16 15 15 15 14 14 14 14 14 14 13 12 10 11 11 11 12 11 9 9 8 8 9 9 8 8 8 9 8 8 9 9 9 9 9 8 8 8 7 7 6 6 6 7 7 8
23 24 24 24 23 23 25 27 29 32 34 34 34 35 33 32 32 29 28 28 26 26 26 27 26 24 23 22 20 20 20 19 19 19 19 19 18 17 17 16 16 17 16 16 16 16 16 16 16 15 13 12 12 11 11 13 14 12 10 10 10 11 10 10 10 10 10 10 9 10 10 10 10 11 11 11 11 11 11 10 8 7 8 9 9
22 23 23 22 23 22 23 25 26 30 36 38 36 35 33 32 32 30 30 28 26 26 26 27 26 24 24 23 21 21 20 20 21 21 21 20 18 17 18 18 18 18 18 18 18 17 17 17 17 15 14 14 14 14 14 14 14 13 12 13 13 12 11 11 12 12 12 12 11 11 12 12 12 13 14 13 13 13 14 14 13 11 10 11 12
23 24 24 23 23 24 23 23 23 25 32 38 38 37 36 36 34 32 32 29 26 27 28 26 24 24 24 24 24 23 20 20 22 22 22 21 19 19 19 19 19 19 19 20 19 18 18 18 17 17 16 16 17 17 16 16 16 15 15 17 16 15 14 13 14 14 14 13 13 14 14 13 13 14 16 15 15 16 16 17 18 16 13 13 14
27 27 25 23 24 27 27 24 22 20 24 32 38 39 38 39 38 36 35 31 28 29 30 26 24 25 26 25 24 22 19 20 21 20 20 21 20 21 21 20 21 20 21 21 21 20 20 19 18 19 19 18 18 19 18 18 18 18 18 19 19 17 16 16 17 17 15 14 14 16 17 16 15 16 17 17 17 17 18 20 21 21 18 15 15
28 29 27 25 25 27 29 29 26 24 24 28 32 37 38 39 40 39 36 33 30 31 32 31 29 29 28 25 23 23 23 23 22 21 22 22 22 22 23 23 22 22 22 22 23 22 21 20 20 20 20 20 20 20 20 20 20 20 21 22 21 19 18 18 19 19 18 17 17 17 17 18 18 18 18 19 20 19 19 19 22 23 22 20 18
28 29 27 27 28 28 29 30 28 30 36 37 33 33 36 38 41 41 36 34 34 33 34 36 35 34 32 27 25 26 27 26 25 25 24 24 23 24 24 25 24 24 24 24 25 24 23 22 22 22 22 23 23 22 22 22 22 22 24 24 23 21 20 20 21 21 22 22 21 20 19 19 20 21 22 23 23 22 20 19 20 23 25 24 22
28 28 25 24 27 30 31 32 26 26 35 41 35 31 32 35 42 45 41 37 36 34 33 36 37 35 33 29 25 25 28 28 27 26 25 26 26 25 25 25 26 26 27 27 26 26 25 25 25 24 24 25 25 25 25 24 24 25 26 26 26 24 23 23 24 24 24 25 24 24 23 22 22 24 25 24 23 24 24 23 22 23 24 26 25
29 29 25 21 22 26 32 37 33 28 26 28 26 27 30 36 43 47 46 41 37 34 33 34 35 33 30 29 26 25 27 28 27 26 27 29 29 28 26 27 27 28 29 29 28 27 27 27 27 26 25 25 26 27 28 27 27 28 28 29 28 27 27 27 27 26 26 27 27 27 26 25 25 25 26 25 23 24 27 27 26 25 25 26 27
28 30 28 25 21 21 28 35 36 32 28 24 22 23 28 35 41 46 47 43 39 38 37 34 32 29 27 29 30 27 27 28 28 27 29 30 30 29 28 28 28 29 29 29 28 27 27 28 28 28 27 26 27 28 29 30 30 31 31 30 29 29 29 30 29 28 28 29 29 29 28 27 27 27 27 26 24 25 27 29 29 28 27 27 29
28 29 28 28 26 23 25 30 31 32 32 30 27 26 27 31 38 44 48 45 42 43 40 36 35 33 29 28 29 29 28 28 28 28 30 31 31 30 29 28 29 29 28 28 27 27 27 28 29 29 28 28 27 28 29 31 32 33 33 33 31 30 31 31 30 30 30 31 31 31 31 30 29 29 29 28 26 26 28 29 30 29 28 28 30
28 29 27 26 26 25 24 25 28 29 29 28 27 27 28 29 33 39 43 43 43 45 43 39 38 37 33 29 29 30 30 30 29 29 31 32 31 31 30 30 30 30 29 29 29 29 29 29 29 29 28 29 30 30 31 32 33 34 35 35 34 33 33 33 32 31 32 33 33 33 33 32 31 30 30 30 29 29 29 30 30 30 29 29 30
25 25 23 22 24 24 23 23 26 28 27 26 25 24 27 30 31 33 36 38 40 41 40 38 35 34 32 29 28 30 31 31 30 30 31 32 32 33 32 31 31 31 32 32 32 32 32 33 33 32 32 32 32 33 34 34 35 35 35 36 36 36 36 37 36 35 35 35 35 34 34 34 34 33 32 32 32 32 33 33 32 31 31 32 33
19 17 14 15 17 18 18 20 23 24 25 26 24 23 24 25 24 24 27 31 35 35 34 33 33 32 31 30 30 31 32 32 31 32 33 34 34 33 33 31 31 33 34 35 33 33 33 34 34 34 36 37 37 37 38 38 38 38 38 38 38 38 38 39 39 39 38 38 37 37 36 35 35 35 35 35 35 34 35 35 35 34 34 35 35
15 12 10 11 13 12 12 13 14 14 15 17 18 20 22 23 22 20 21 24 28 29 29 28 29 31 32 32 33 33 33 35 35 33 33 34 34 33 32 30 30 32 33 33 32 31 32 33 33 34 36 37 36 37 40 42 42 41 41 40 39 39 38 39 40 40 40 40 40 39 39 37 36 36 36 36 36 36 36 36 36 36 37 36 36
12 11 11 14 14 12 11 10 9 10 10 9 10 12 15 17 20 22 25 27 28 27 25 23 23 26 28 29 30 31 32 33 35 34 31 30 30 30 29 29 29 30 31 31 30 28 27 29 30 32 33 32 31 33 38 41 43 42 40 40 40 39 39 40 41 41 41 41 41 41 42 41 39 39 38 38 39 39 38 38 38 37 37 37 37
12 12 13 15 16 14 12 10 9 9 9 9 9 10 10 10 12 15 20 26 30 30 26 22 19 18 20 23 25 26 26 26 28 30 28 25 24 23 24 26 27 28 29 30 27 24 25 25 24 23 25 26 28 34 38 40 42 41 39 37 37 38 39 39 41 42 42 42 43 43 43 43 42 42 42 41 42 42 41 41 41 40 39 39 38
12 12 12 13 13 12 9 8 7 7 8 8 8 9 10 9 9 10 11 15 21 25 26 26 21 16 15 16 17 17 17 17 17 17 18 18 18 18 19 22 23 25 27 28 25 23 24 25 22 19 18 16 18 26 33 38 39 36 32 29 28 29 31 33 36 39 41 43 42 42 43 44 44 43 43 43 44 45 45 45 45 44 42 41 39
11 11 11 10 10 9 8 7 7 7 7 8 8 9 9 9 9 10 10 11 13 16 18 21 21 18 16 15 14 12 11 10 10 10 11 13 15 16 17 19 21 21 21 23 25 23 21 22 21 19 18 17 15 16 18 23 27 26 22 22 25 26 26 26 28 31 35 38 37 37 41 44 44 44 45 45 45 46 48 49 48 47 46 44 42
13 12 12 10 8 8 8 8 8 8 8 8 8 8 8 8 9 9 9 10 11 12 13 14 15 16 15 14 13 12 11 9 9 10 11 12 13 15 17 19 21 21 20 21 24 22 19 20 21 19 18 19 19 16 15 15 18 20 22 24 26 26 24 23 24 25 28 32 32 33 37 40 42 43 45 46 46 47 48 48 49 49 48 47 45
14 13 12 11 9 9 10 10 9 8 7 7 6 5 4 4 5 5 6 7 7 9 10 11 12 13 13 13 13 13 12 11 11 12 12 13 14 15 17 18 19 21 22 22 22 21 19 21 22 20 18 20 22 21 19 19 20 22 23 24 24 24 23 23 24 26 28 31 34 36 38 39 38 39 40 42 42 41 41 42 44 46 48 48 48
17 15 13 11 10 11 12 12 12 10 9 8 8 7 7 7 7 8 9 9 9 10 10 10 11 12 13 14 14 14 15 14 14 15 15 15 16 17 18 18 19 20 21 22 22 22 21 22 23 22 22 24 25 24 23 23 23 25 25 25 24 24 24 24 25 27 29 31 34 37 39 40 39 37 37 38 37 36 36 37 37 39 42 44 46
21 19 17 15 14 14 14 15 14 14 13 12 12 11 11 11 12 12 13 13 13 13 13 13 13 13 14 14 15 16 17 17 18 18 18 18 19 19 20 20 20 21 22 22 22 22 23 23 24 24 25 26 26 26 26 26 26 28 28 28 27 26 26 26 27 28 29 30 31 33 35 37 38 37 37 38 38 39 40 39 38 39 41 41 43
23 22 20 18 17 18 18 17 17 16 16 15 14 14 14 14 14 15 15 15 15 15 15 15 16 16 16 16 17 18 19 20 21 21 22 22 22 22 22 22 23 23 23 24 24 24 25 25 26 26 27 28 28 28 28 28 29 29 30 30 30 29 28 29 29 30 30 31 32 32 32 32 34 36 37 38 38 39 41 42 43 44 43 42 42
24 23 22 20 20 21 21 20 20 19 18 18 17 16 16 15 16 16 16 17 17 17 17 17 18 18 19 19 20 20 21 22 23 23 24 25 25 25 25 24 24 24 25 25 26 26 27 27 28 28 29 29 30 30 30 31 31 31 31 31 31 30 30 30 30 31 32 32 32 32 31 30 30 32 34 36 38 39 40 41 42 43 43 43 43
24 24 22 22 23 24 23 23 22 21 20 20 20 19 18 17 17 17 17 18 18 18 18 19 19 20 21 21 22 23 24 24 25 25 26 26 26 27 27 27 26 26 26 27 27 28 28 29 30 30 30 31 31 32 32 33 32 32 32 32 31 31 31 30 30 30 31 32 32 31 31 30 29 29 30 32 33 35 36 38 39 40 40 41 42
23 24 23 23 24 25 26 25 25 23 23 22 22 21 20 20 19 19 18 18 19 19 19 20 20 20 20 22 23 24 25 25 26 26 26 26 27 27 28 28 28 28 28 28 29 29 30 30 31 31 32 32 33 33 34 34 35 35 35 34 33 33 33 33 32 31 31 31 31 31 31 30 30 30 29 30 29 29 29 30 31 32 32 34 36
Wind_Direction
233 241 245 246 257 271 291 319 342 20 62 71 69 75 80 82 85 88 95 102 105 111 116 118 122 126 124 122 126 128 129 131 132 134 136 137 138 141 144 147 148 146 140 134 131 132 135 136 138 139 139 144 149 161 178 188 191 190 191 198 195 180 155 155 188 199 158 165 59 68 273 5 24 6 355 355 349 343 349 4 13 5 3 19 20
231 233 238 241 248 261 273 297 330 13 73 82 79 85 92 96 97 99 104 110 115 117 118 119 121 123 124 124 125 127 130 133 133 136 139 140 141 143 144 144 143 141 137 129 123 123 127 133 139 140 146 152 153 163 182 199 197 189 180 189 187 161 148 160 176 154 133 143 106 155 201 54 42 18 17 18 1 357 2 7 15 14 10 20 21
232 232 233 234 236 247 257 273 314 351 86 97 95 97 104 107 108 106 108 113 118 123 124 124 122 123 127 128 129 129 129 129 129 132 136 138 137 137 136 136 134 133 132 126 122 123 129 137 142 145 156 160 163 172 186 199 199 188 180 183 184 163 149 155 160 148 148 177 155 137 138 50 58 54 38 36 20 6 13 13 8 8 3 8 12
231 232 229 230 230 233 247 256 267 280 121 117 114 115 117 119 118 115 114 116 119 125 128 125 123 123 125 127 129 127 123 121 122 124 128 128 126 126 125 124 123 122 122 122 124 126 131 137 139 143 148 155 173 182 184 196 197 185 180 183 179 167 156 149 151 155 150 159 152 109 106 67 68 66 31 35 32 16 11 3 353 356 356 4 14
225 228 228 229 229 229 238 241 229 232 186 139 132 133 133 132 130 126 124 123 121 123 125 121 118 118 117 117 119 116 112 114 117 119 120 118 116 115 115 115 116 117 121 127 130 131 130 128 136 136 131 139 159 175 179 190 194 186 177 177 170 166 161 146 143 145 126 128 118 93 98 102 98 101 80 53 43 25 7 1 4 7 1 9 25
220 223 227 227 227 228 232 233 220 216 212 168 148 147 147 146 142 137 133 130 127 124 124 121 116 114 113 113 113 111 110 113 116 118 117 116 116 115 116 117 116 118 121 127 131 133 127 123 129 126 120 128 139 159 177 185 188 178 166 157 139 154 156 133 127 115 104 113 104 90 101 121 112 100 80 61 58 52 23 13 12 9 12 20 32
220 219 221 225 226 227 229 230 223 210 211 195 165 158 158 157 154 147 141 137 135 131 128 127 122 120 120 118 118 117 118 119 118 119 116 116 116 119 125 126 122 123 124 129 133 133 131 129 129 123 120 131 146 151 156 167 174 156 150 138 118 129 143 123 119 108 97 101 104 109 122 113 95 82 66 45 42 46 39 28 4 358 19 28 34
221 220 216 220 223 226 228 228 224 211 206 207 185 170 165 165 164 157 150 144 142 139 135 135 132 133 132 128 129 127 126 126 119 113 111 109 109 116 130 132 130 134 137 143 142 138 138 138 135 131 131 140 144 143 143 152 162 154 150 135 120 125 134 121 116 115 106 105 118 130 121 106 103 97 75 52 43 39 40 44 6 359 17 14 14
222 224 218 218 219 222 225 226 223 214 206 206 199 183 173 171 170 168 160 152 150 148 145 144 142 144 144 141 141 138 136 135 123 113 109 108 109 119 132 137 140 144 148 153 151 148 148 147 145 139 137 142 141 140 148 156 157 152 145 133 124 129 131 122 112 120 115 111 123 127 103 102 119 125 98 77 78 54 37 43 34 11 8 4 11
231 229 220 219 221 220 221 223 221 218 211 206 204 192 181 177 176 175 171 163 158 156 155 154 154 157 159 158 155 150 149 146 134 126 124 122 125 136 141 147 156 160 160 161 159 158 159 158 152 142 138 145 146 140 148 159 158 149 143 135 123 121 122 115 114 127 119 114 118 110 104 98 99 105 90 84 87 33 16 32 45 20 344 3 16
237 234 223 218 221 220 220 222 221 219 216 210 206 200 190 183 180 181 180 175 168 165 165 167 167 170 171 169 166 160 158 157 147 138 138 141 144 157 162 164 171 174 170 171 172 170 171 168 157 148 149 153 152 148 153 162 158 152 153 151 134 123 117 106 119 140 133 125 115 98 101 82 79 90 76 84 84 41 36 49 47 29 355 12 31
235 234 226 219 220 220 218 220 221 219 217 213 208 203 198 190 185 185 187 186 181 177 177 179 180 181 180 178 174 168 167 166 159 150 151 158 156 164 180 182 182 181 176 176 180 180 180 177 167 160 160 159 157 157 161 163 160 160 163 162 159 141 122 109 129 174 159 131 106 90 87 70 97 106 69 69 56 37 54 59 35 39 33 32 45
229 230 228 221 220 222 219 216 218 220 220 217 210 206 203 198 193 190 190 192 191 189 189 189 190 189 185 182 180 177 177 179 177 165 164 168 167 170 179 185 185 183 182 181 183 184 181 178 175 169 164 163 164 164 164 162 161 166 166 173 178 158 139 160 257 264 245 141 88 89 93 47 78 91 56 54 39 33 64 58 29 37 41 39 47
230 226 226 223 220 222 222 217 215 219 221 218 214 210 207 204 202 196 193 195 196 197 197 196 196 194 189 186 185 186 187 190 192 188 188 181 173 185 175 174 173 174 180 179 179 180 173 167 168 169 165 162 164 165 160 159 164 167 170 186 191 174 176 197 216 244 268 92 84 84 85 5 52 63 51 55 52 55 66 57 29 35 36 36 42
243 232 226 222 221 222 223 218 215 218 220 219 217 214 210 207 208 205 199 197 198 201 203 202 202 200 195 194 193 195 197 199 203 206 214 220 214 203 173 164 158 156 164 167 171 170 161 157 158 159 157 151 150 151 147 150 161 164 166 178 184 179 187 190 182 187 49 68 80 73 41 22 31 21 43 65 61 61 68 63 38 44 45 43 40
249 244 230 223 222 223 223 220 216 217 221 221 218 216 213 210 210 210 206 202 200 202 204 205 206 206 203 202 203 204 205 205 211 216 222 236 244 222 192 184 163 158 161 162 164 158 150 152 152 149 146 140 137 135 130 135 147 155 161 166 167 166 169 178 186 186 358 41 77 85 63 18 347 340 21 52 52 68 82 66 36 41 47 49 51
247 247 234 222 219 221 223 223 219 219 222 221 218 217 215 212 211 212 211 207 204 204 206 207 209 210 210 210 211 213 213 212 215 219 223 233 243 236 216 202 182 177 179 176 171 163 160 161 157 151 144 136 131 127 129 137 147 174 189 182 185 189 195 216 228 233 266 312 41 85 73 299 298 328 355 10 24 60 72 64 54 54 47 32 35
247 243 233 220 215 216 221 223 221 221 223 221 218 218 218 215 213 213 214 212 209 206 207 209 210 211 212 214 216 217 218 218 218 220 223 229 238 240 235 223 204 196 197 196 194 191 191 193 189 189 183 177 204 230 249 260 269 275 280 281 269 253 249 250 254 256 258 276 302 331 324 296 295 318 334 335 360 35 50 61 58 51 43 22 20
248 243 233 220 213 213 218 221 221 222 225 224 220 219 220 219 215 214 215 215 213 210 209 211 213 213 213 216 219 221 222 223 222 223 226 228 232 236 237 233 222 213 209 208 209 211 216 221 227 236 247 259 268 273 280 283 284 288 290 291 290 285 279 280 280 276 267 260 259 256 274 282 286 301 319 329 1 27 37 52 53 46 26 9 18
247 242 230 218 214 215 219 221 220 222 226 226 223 222 223 222 219 217 217 217 216 214 212 212 215 216 216 217 220 223 225 226 227 228 230 231 234 236 234 232 230 226 221 217 216 217 221 228 236 245 253 261 269 273 277 281 284 287 291 292 293 290 284 284 285 282 277 271 263 240 242 259 273 289 306 322 1 25 22 24 33 47 26 354 2
244 240 227 217 216 220 224 222 219 220 225 227 226 225 226 226 224 221 219 218 218 218 216 214 215 217 219 220 221 224 226 228 230 232 233 235 236 238 237 234 232 231 230 228 226 224 224 229 236 245 253 259 265 269 271 274 277 278 279 283 286 285 283 282 284 286 287 287 284 271 246 235 239 255 275 293 321 358 1 356 349 344 357 351 339
238 236 228 221 220 221 223 222 219 219 223 226 226 225 226 229 231 229 225 222 220 221 221 219 218 218 219 221 223 225 228 230 232 234 236 237 238 239 237 235 234 234 233 234 234 234 233 235 238 243 250 257 261 262 263 264 267 268 270 272 276 280 281 282 285 288 289 289 290 290 282 266 246 225 223 234 238 269 297 299 310 308 301 301 315
231 231 227 224 224 223 222 222 221 220 221 222 223 224 224 226 231 233 230 226 224 223 224 224 222 221 221 222 224 226 228 232 234 237 239 240 241 240 238 237 236 236 236 237 238 240 241 242 244 246 250 256 261 263 262 262 262 264 266 269 273 278 281 284 286 288 289 293 300 301 296 290 285 272 253 245 224 207 250 259 259 269 270 265 268
222 225 225 223 223 224 225 225 223 222 221 220 221 225 224 220 222 229 233 232 229 227 226 226 226 225 224 225 225 227 229 232 235 238 240 241 241 240 238 237 236 236 238 240 242 243 244 243 243 245 248 256 264 266 265 263 263 267 268 271 276 278 279 280 282 284 286 290 295 295 291 288 290 290 287 284 276 256 241 242 246 256 267 272 271
223 222 224 222 220 222 226 228 227 224 223 222 222 223 225 220 215 220 229 232 232 229 226 226 227 226 225 226 227 228 230 231 234 237 238 238 238 239 239 239 238 238 237 238 240 242 244 244 242 239 238 243 254 265 272 270 261 258 262 267 273 275 277 279 278 280 282 283 283 282 280 281 285 290 289 284 280 276 270 263 260 268 276 280 283
233 226 223 222 222 224 227 229 231 230 227 226 225 222 221 220 215 214 222 230 232 231 229 229 228 227 227 228 227 228 231 231 232 234 235 237 238 239 241 241 241 240 239 239 241 243 246 247 248 247 245 243 245 250 261 266 263 262 263 260 261 267 272 276 278 279 279 280 282 284 287 288 288 289 287 282 281 281 282 283 279 274 275 280 284
239 233 228 227 228 230 230 230 234 235 231 228 228 225 221 220 218 216 220 225 227 228 233 236 235 232 231 230 228 230 234 235 234 234 235 236 238 239 241 241 241 242 241 242 243 245 248 250 252 256 257 254 251 246 243 246 251 260 263 258 258 265 269 271 273 273 273 276 277 276 279 281 279 281 282 283 283 281 282 287 285 278 276 279 283
239 239 237 234 234 232 229 228 232 236 233 229 228 229 226 223 223 222 221 223 223 222 229 235 236 233 232 231 232 232 233 235 238 240 241 239 238 238 240 243 243 243 243 244 245 245 245 248 251 253 253 253 255 256 254 247 243 248 256 257 259 261 262 263 264 262 264 270 274 275 278 277 275 278 285 288 286 280 281 287 287 282 279 279 281
238 240 238 234 234 234 234 237 238 238 238 234 232 234 232 229 229 226 221 222 223 223 224 226 227 228 227 230 233 232 231 233 237 242 247 248 246 244 244 245 244 245 246 248 249 248 247 249 251 251 252 253 253 255 258 257 253 252 253 255 257 258 260 262 263 263 263 264 266 272 279 280 276 276 281 286 285 279 281 288 289 286 283 279 277
240 239 237 232 230 232 236 240 242 244 243 241 239 239 239 236 232 228 222 221 223 223 222 222 222 224 224 226 228 229 231 234 237 239 241 243 246 248 248 248 247 248 249 250 251 252 251 250 249 249 252 255 254 254 256 260 263 262 259 257 257 258 261 265 268 271 270 266 262 260 262 266 269 269 269 271 271 269 271 280 285 285 284 281 279
243 240 240 237 230 229 232 234 242 250 243 236 237 242 242 238 230 225 223 223 222 220 222 226 226 224 223 222 222 226 230 234 237 238 238 239 241 244 246 248 250 249 249 249 251 252 252 252 253 251 250 251 254 256 258 260 264 265 265 265 264 262 261 264 267 268 267 266 265 263 260 260 262 264 263 264 267 269 270 272 275 278 282 282 281
241 239 242 244 234 229 228 225 234 248 234 220 220 230 236 235 228 222 222 223 221 220 227 232 229 225 223 221 221 227 232 237 239 239 243 245 246 247 248 251 252 251 249 249 249 250 251 253 255 255 252 250 250 252 255 259 262 263 265 266 266 265 263 262 262 263 264 266 267 267 265 262 262 263 264 266 269 272 272 271 268 270 275 279 280
241 239 241 244 237 229 227 226 233 246 236 216 213 220 225 229 228 224 223 225 223 221 224 227 226 226 226 227 232 235 235 239 242 241 244 249 250 251 251 251 251 250 249 249 249 249 250 252 254 255 255 255 253 250 251 254 259 262 265 266 265 265 264 263 262 262 264 266 267 266 265 264 265 267 269 271 274 274 273 271 271 271 272 274 277
248 245 244 245 245 235 228 232 241 251 251 245 239 235 233 235 232 227 225 226 224 219 219 224 227 230 232 233 238 241 237 239 242 242 244 247 249 250 250 250 251 250 250 249 249 249 249 250 252 253 254 255 255 253 251 251 255 259 262 263 264 264 264 264 265 265 265 267 268 267 267 266 266 267 269 272 274 274 271 269 271 274 272 270 272
253 252 250 248 251 247 239 241 248 252 253 251 247 245 244 242 236 230 226 226 223 220 225 232 233 233 234 232 234 238 238 238 240 240 241 244 246 247 248 251 254 255 255 255 254 252 251 250 251 252 253 254 255 254 253 253 255 258 260 262 264 264 263 263 264 265 266 266 266 267 267 267 266 266 267 268 270 270 269 267 270 273 271 268 268
254 256 254 249 251 253 252 251 249 248 247 245 242 239 236 235 234 232 230 229 226 226 233 238 235 233 235 233 233 236 237 237 239 239 240 243 248 250 251 253 255 256 257 259 259 258 257 255 254 252 252 253 254 255 255 256 257 258 260 263 265 265 265 264 264 264 264 265 265 266 267 268 267 266 266 267 268 267 266 267 271 273 272 270 270
253 259 259 254 254 255 256 253 247 241 237 233 231 228 226 228 230 231 232 232 231 231 234 234 231 231 233 233 235 238 237 238 240 240 240 244 248 249 250 252 253 253 255 259 261 262 263 263 260 257 254 253 253 254 255 257 258 260 262 263 264 266 267 267 265 265 265 265 264 265 266 267 267 267 266 266 266 265 265 267 271 274 275 274 274
253 262 263 257 254 252 249 248 247 242 235 231 228 223 220 222 226 230 232 234 234 233 232 232 232 233 234 235 237 238 238 240 241 241 242 244 245 245 246 249 251 253 256 259 261 263 267 266 263 260 259 257 256 257 258 258 260 261 263 265 266 267 268 269 267 267 266 266 265 264 264 263 264 265 265 266 266 266 266 268 270 274 276 276 275
243 252 249 240 239 240 239 241 245 244 238 232 226 222 219 219 223 227 228 228 228 227 227 229 232 233 234 237 239 238 239 240 240 240 241 242 242 242 243 246 249 252 255 256 257 263 267 266 263 261 260 260 262 264 264 263 262 263 264 266 268 269 270 270 269 268 267 266 265 265 264 263 263 264 265 266 268 268 268 268 269 271 273 274 275
225 232 233 231 234 239 245 250 254 255 253 241 222 213 212 216 223 226 225 223 221 220 220 224 231 234 236 238 238 236 237 239 238 237 236 237 238 238 240 244 247 250 252 252 255 263 268 267 265 261 257 254 256 261 264 265 266 266 266 267 270 271 270 269 268 268 267 266 264 264 264 264 264 265 266 267 268 269 268 268 268 269 270 271 273
215 220 227 234 239 242 247 252 253 252 249 237 217 204 198 200 210 219 224 224 222 220 218 218 223 231 235 237 236 233 233 235 233 231 232 234 236 237 240 244 245 247 249 250 256 266 271 274 277 270 258 249 246 250 256 260 264 268 269 270 273 274 273 270 267 267 267 266 264 263 264 264 264 265 265 266 267 268 267 266 267 268 269 270 271
210 212 222 231 235 233 228 223 223 230 230 220 210 205 201 195 193 199 210 219 220 219 215 210 205 202 210 222 226 227 232 236 232 229 233 236 238 241 245 246 246 246 248 250 257 267 274 279 284 282 275 270 260 257 257 257 261 267 270 272 277 282 281 275 270 267 266 266 266 266 266 265 264 264 264 265 265 266 266 265 265 266 267 267 268
210 207 211 217 218 214 203 188 175 174 184 187 186 192 197 196 194 196 201 210 217 219 219 216 211 205 203 204 203 206 218 229 230 233 240 244 248 251 252 250 249 249 248 249 256 268 279 283 282 281 287 294 295 291 283 271 263 262 266 275 284 287 285 278 272 268 266 266 267 268 268 267 265 265 266 266 266 266 266 266 265 265 266 266 266
212 202 199 200 200 195 187 176 166 161 164 168 171 176 186 193 195 198 203 210 217 221 225 228 228 226 222 218 213 211 214 220 228 235 242 249 256 259 258 255 253 253 254 255 259 269 281 281 279 285 293 293 294 302 308 295 277 270 276 284 287 286 282 275 271 269 268 266 264 265 270 273 273 271 270 270 270 269 268 268 267 267 267 267 267
209 200 196 196 193 187 179 172 172 173 173 175 181 185 197 212 221 225 227 230 235 238 238 239 239 239 238 236 232 231 229 231 235 239 244 250 256 260 263 263 260 260 262 263 265 268 271 273 276 280 281 279 284 289 290 289 287 285 285 287 286 286 285 279 274 272 272 271 271 271 275 278 278 275 272 270 269 270 270 271 270 268 268 267 267
209 203 204 206 203 195 186 181 182 187 190 196 207 217 228 239 248 255 257 257 259 261 261 259 254 249 246 244 243 242 241 239 239 241 244 248 252 257 261 264 265 265 266 268 269 270 270 271 274 276 273 274 280 284 284 284 285 283 282 283 284 286 287 285 281 279 278 277 277 277 277 277 277 276 272 266 263 265 270 272 271 270 269 269 269
212 211 214 220 219 212 202 194 193 195 200 206 214 223 231 237 242 247 251 254 256 259 263 266 266 263 257 253 250 248 247 247 247 247 248 249 252 255 259 261 264 266 267 268 269 270 271 272 273 275 277 277 279 280 279 279 278 278 279 281 282 282 283 283 283 283 282 283 282 280 278 275 274 273 272 267 264 265 268 269 268 269 271 271 270
217 218 220 222 223 220 214 208 204 204 207 211 217 223 230 235 239 242 245 248 251 255 259 262 265 266 265 263 259 256 254 253 252 251 251 252 253 255 257 258 260 262 264 267 268 269 270 272 272 274 276 277 277 277 277 277 276 277 278 279 280 281 281 282 283 283 283 284 283 283 282 278 274 272 271 270 270 269 269 268 266 267 270 271 271
222 223 224 223 220 219 218 216 214 214 216 219 222 227 231 235 239 242 244 247 251 253 255 258 261 263 263 263 263 262 261 260 259 258 257 257 257 257 258 258 258 260 261 264 266 267 268 268 270 271 272 274 276 278 279 279 280 280 281 282 283 284 283 283 283 284 284 284 284 285 285 283 280 276 273 273 272 271 269 268 266 267 269 271 271
222 223 225 223 219 217 219 220 221 223 226 227 228 229 232 237 242 245 247 249 252 254 256 259 261 261 261 261 260 261 261 261 262 262 262 263 263 263 263 263 263 263 263 263 265 266 267 268 269 269 270 272 274 276 277 279 280 281 282 282 283 284 284 283 282 282 282 283 283 284 285 285 284 282 279 277 275 273 271 270 270 269 269 269 268
222 222 224 224 221 218 219 221 224 229 233 235 235 233 234 238 243 247 248 249 252 256 261 264 265 265 263 262 261 261 262 262 263 265 266 268 269 269 270 270 270 270 270 270 269 270 270 271 272 272 272 273 273 274 276 277 279 280 281 281 282 282 282 282 281 281 281 281 281 281 282 282 283 282 282 280 279 277 276 274 272 269 266 266 267
Height
5900 5901 5902 5902 5902 5902 5902 5902 5902 5902 5902 5903 5903 5903 5902 5902 5903 5903 5903 5902 5903 5903 5903 5903 5904 5905 5906 5907 5908 5909 5910 5911 5912 5913 5914 5916 5917 5919 5921 5923 5925 5926 5926 5926 5926 5927 5928 5929 5930 5930 5931 5932 5932 5933 5933 5933 5933 5933 5934 5934 5934 5935 5936 5936 5936 5936 5936 5936 5935 5935 5934 5932 5931 5932 5932 5930 5929 5928 5927 5926 5925 5925 5924 5923 5922
5900 5901 5902 5902 5902 5902 5902 5902 5903 5903 5902 5903 5904 5904 5903 5904 5904 5904 5904 5904 5905 5905 5905 5905 5906 5906 5907 5908 5910 5911 5912 5913 5914 5915 5917 5918 5920 5921 5923 5924 5925 5926 5926 5926 5927 5927 5928 5929 5930 5930 5931 5931 5932 5932 5933 5933 5933 5934 5934 5934 5934 5935 5935 5936 5935 5935 5936 5935 5935 5935 5934 5932 5932 5932 5932 5930 5929 5928 5927 5927 5926 5925 5924 5924 5923
5899 5901 5901 5902 5902 5902 5902 5902 5903 5903 5903 5903 5904 5905 5904 5904 5905 5905 5906 5906 5906 5907 5908 5908 5908 5909 5909 5910 5911 5913 5914 5915 5916 5917 5919 5921 5922 5923 5924 5924 5925 5925 5926 5926 5927 5928 5928 5929 5930 5930 5931 5931 5932 5932 5932 5933 5933 5933 5934 5934 5934 5934 5935 5935 5935 5935 5936 5935 5935 5935 5935 5934 5934 5934 5933 5931 5929 5929 5928 5928 5928 5926 5925 5925 5924
5898 5900 5901 5901 5902 5902 5902 5902 5903 5903 5904 5904 5904 5905 5905 5905 5906 5906 5907 5907 5908 5909 5910 5910 5910 5911 5911 5912 5913 5914 5915 5916 5917 5919 5920 5922 5922 5923 5923 5924 5925 5925 5926 5926 5927 5928 5929 5929 5930 5930 5931 5931 5932 5932 5933 5933 5933 5933 5933 5933 5934 5934 5935 5935 5935 5936 5936 5935 5935 5936 5936 5936 5936 5935 5934 5932 5931 5930 5930 5929 5928 5927 5926 5925 5924
5897 5899 5900 5901 5901 5902 5902 5902 5903 5904 5904 5904 5905 5906 5906 5906 5906 5907 5907 5908 5909 5909 5910 5911 5911 5912 5913 5913 5914 5915 5915 5916 5918 5920 5921 5921 5922 5922 5923 5924 5925 5925 5926 5927 5927 5928 5929 5929 5930 5930 5931 5932 5932 5933 5933 5933 5933 5933 5934 5934 5934 5934 5935 5935 5935 5936 5936 5936 5936 5937 5937 5937 5937 5936 5934 5932 5931 5930 5931 5930 5928 5927 5926 5925 5925
5896 5898 5899 5900 5901 5902 5902 5902 5902 5903 5904 5905 5905 5906 5907 5908 5908 5908 5908 5909 5910 5910 5911 5912 5912 5913 5913 5914 5915 5915 5916 5918 5919 5920 5921 5921 5922 5923 5924 5924 5925 5926 5926 5927 5928 5928 5929 5930 5931 5931 5931 5932 5933 5933 5933 5933 5933 5934 5934 5934 5934 5934 5934 5934 5935 5936 5936 5937 5937 5937 5937 5937 5936 5936 5934 5933 5931 5930 5931 5931 5930 5928 5927 5926 5926
5895 5897 5898 5899 5900 5901 5901 5901 5902 5903 5904 5905 5905 5906 5907 5908 5909 5909 5909 5910 5911 5912 5912 5913 5914 5915 5915 5915 5916 5917 5918 5919 5920 5920 5921 5922 5923 5923 5924 5925 5926 5926 5927 5927 5928 5929 5930 5930 5931 5931 5932 5932 5933 5933 5933 5933 5933 5934 5934 5934 5934 5934 5934 5934 5935 5936 5936 5937 5937 5937 5937 5937 5937 5936 5935 5934 5933 5932 5931 5931 5931 5930 5928 5927 5927
5894 5895 5897 5898 5899 5900 5901 5901 5902 5902 5904 5905 5906 5906 5907 5909 5909 5910 5910 5910 5912 5913 5914 5915 5916 5916 5917 5917 5918 5918 5919 5920 5920 5921 5922 5923 5924 5924 5925 5926 5926 5927 5927 5928 5929 5929 5930 5931 5931 5932 5932 5933 5933 5933 5933 5934 5934 5934 5934 5934 5934 5934 5934 5934 5935 5936 5936 5937 5937 5937 5937 5937 5937 5936 5936 5935 5935 5933 5932 5931 5932 5931 5929 5929 5928
5893 5894 5896 5897 5898 5899 5900 5901 5901 5902 5903 5905 5906 5906 5907 5908 5910 5910 5911 5911 5912 5913 5914 5915 5916 5917 5918 5918 5919 5919 5920 5920 5921 5922 5923 5924 5925 5925 5926 5926 5926 5927 5928 5928 5929 5930 5930 5931 5931 5932 5932 5933 5933 5933 5933 5933 5934 5934 5934 5934 5934 5934 5934 5934 5935 5935 5936 5937 5937 5937 5937 5937 5936 5936 5936 5935 5934 5934 5933 5932 5931 5932 5932 5931 5930
5892 5893 5894 5896 5897 5898 5899 5900 5901 5902 5902 5904 5905 5906 5907 5908 5909 5911 5912 5912 5913 5914 5914 5915 5916 5917 5918 5919 5919 5920 5921 5921 5922 5923 5924 5924 5925 5926 5926 5927 5927 5927 5928 5928 5929 5930 5930 5931 5931 5932 5932 5933 5933 5933 5933 5933 5933 5934 5933 5934 5934 5934 5934 5935 5935 5935 5936 5937 5936 5936 5936 5936 5936 5936 5936 5936 5935 5935 5934 5933 5933 5933 5934 5932 5930
5891 5892 5893 5894 5895 5897 5898 5899 5900 5901 5902 5903 5905 5906 5907 5908 5909 5910 5912 5913 5913 5914 5915 5916 5916 5917 5918 5919 5920 5921 5921 5922 5923 5923 5924 5925 5926 5926 5927 5927 5927 5928 5928 5929 5929 5930 5930 5931 5931 5932 5933 5933 5933 5933 5933 5933 5933 5933 5934 5934 5934 5934 5935 5935 5935 5935 5935 5936 5936 5936 5936 5935 5936 5936 5936 5936 5936 5936 5935 5934 5934 5934 5934 5932 5930
5890 5890 5891 5893 5894 5895 5897 5898 5899 5901 5902 5902 5904 5905 5907 5908 5908 5910 5911 5913 5914 5914 5915 5916 5917 5918 5919 5920 5920 5921 5922 5923 5923 5924 5925 5925 5926 5927 5927 5928 5928 5928 5929 5929 5930 5930 5931 5931 5931 5932 5933 5933 5933 5933 5933 5933 5933 5933 5934 5934 5934 5934 5934 5934 5934 5934 5935 5935 5936 5936 5936 5935 5936 5936 5936 5936 5936 5935 5935 5935 5934 5933 5933 5932 5930
5887 5888 5890 5891 5893 5894 5895 5897 5898 5899 5901 5902 5903 5904 5906 5907 5908 5909 5911 5912 5914 5915 5915 5916 5917 5918 5919 5920 5921 5922 5922 5923 5924 5924 5925 5926 5926 5927 5928 5928 5929 5929 5929 5930 5930 5930 5931 5931 5932 5932 5933 5934 5934 5934 5934 5934 5933 5933 5934 5934 5934 5934 5934 5934 5934 5934 5934 5935 5935 5935 5935 5935 5935 5936 5935 5935 5935 5935 5935 5935 5933 5933 5934 5932 5930
5885 5886 5887 5889 5891 5892 5893 5895 5896 5898 5900 5901 5902 5903 5905 5906 5908 5909 5910 5911 5913 5914 5915 5916 5917 5918 5919 5920 5921 5922 5923 5923 5924 5925 5925 5926 5927 5928 5928 5929 5929 5929 5930 5930 5930 5931 5931 5932 5932 5933 5933 5934 5934 5934 5934 5934 5934 5934 5934 5934 5934 5934 5934 5934 5934 5934 5934 5934 5935 5935 5934 5934 5935 5935 5935 5935 5934 5935 5935 5935 5933 5933 5933 5932 5930
5883 5884 5885 5887 5889 5890 5891 5893 5894 5896 5898 5900 5901 5902 5903 5905 5907 5908 5909 5910 5912 5913 5915 5916 5917 5918 5919 5920 5921 5922 5923 5924 5924 5925 5926 5927 5927 5928 5928 5929 5930 5930 5930 5931 5931 5931 5931 5932 5932 5933 5933 5934 5934 5934 5934 5934 5934 5934 5934 5935 5935 5935 5935 5935 5934 5934 5934 5934 5935 5935 5934 5934 5935 5935 5935 5934 5934 5934 5935 5935 5934 5934 5932 5930 5930
5880 5881 5883 5885 5887 5888 5889 5891 5892 5894 5896 5898 5900 5901 5901 5903 5905 5907 5908 5909 5911 5912 5914 5915 5917 5918 5919 5920 5921 5922 5923 5924 5925 5925 5926 5927 5927 5928 5928 5929 5930 5930 5931 5931 5931 5931 5932 5932 5932 5933 5933 5934 5934 5934 5934 5935 5935 5935 5935 5935 5935 5935 5935 5935 5935 5934 5934 5934 5935 5935 5934 5934 5934 5934 5934 5933 5933 5934 5935 5935 5935 5934 5933 5931 5931
5878 5879 5880 5882 5884 5886 5887 5889 5890 5892 5894 5896 5898 5899 5900 5901 5903 5905 5907 5908 5909 5911 5913 5914 5916 5917 5919 5920 5921 5922 5923 5924 5925 5925 5926 5926 5927 5927 5928 5928 5929 5930 5931 5931 5932 5932 5932 5933 5933 5933 5933 5934 5934 5934 5934 5935 5935 5935 5935 5935 5936 5936 5936 5935 5935 5934 5934 5934 5934 5934 5934 5933 5933 5933 5932 5932 5933 5933 5935 5935 5934 5934 5933 5933 5933
5876 5877 5877 5878 5881 5883 5885 5887 5889 5890 5892 5894 5896 5898 5898 5899 5901 5903 5905 5907 5908 5909 5911 5913 5915 5916 5918 5919 5921 5922 5923 5923 5924 5925 5925 5926 5926 5927 5927 5928 5928 5929 5930 5931 5931 5932 5933 5933 5933 5933 5933 5933 5934 5934 5934 5934 5935 5935 5935 5935 5935 5936 5936 5935 5935 5934 5934 5933 5933 5933 5933 5933 5932 5931 5931 5931 5931 5932 5934 5935 5934 5933 5932 5933 5933
5874 5875 5875 5876 5879 5881 5883 5885 5887 5888 5890 5892 5894 5896 5897 5898 5900 5901 5903 5905 5907 5908 5910 5911 5913 5914 5916 5918 5919 5921 5922 5923 5924 5924 5925 5925 5926 5926 5926 5927 5927 5928 5929 5930 5930 5931 5932 5933 5933 5933 5933 5933 5933 5933 5933 5934 5934 5934 5934 5934 5934 5935 5935 5935 5934 5934 5933 5933 5933 5933 5932 5932 5931 5931 5930 5930 5930 5930 5932 5934 5934 5933 5932 5931 5932
5872 5873 5874 5874 5876 5878 5880 5882 5885 5886 5888 5890 5892 5894 5896 5897 5898 5900 5901 5903 5905 5907 5908 5909 5911 5912 5914 5916 5918 5919 5921 5922 5923 5923 5924 5925 5925 5925 5926 5926 5927 5927 5928 5928 5929 5930 5931 5931 5932 5932 5932 5933 5933 5933 5933 5933 5933 5933 5933 5933 5933 5933 5934 5934 5933 5933 5933 5933 5933 5933 5932 5931 5930 5930 5930 5929 5928 5929 5930 5931 5932 5933 5933 5932 5932
5870 5871 5872 5872 5874 5876 5877 5879 5881 5884 5886 5888 5890 5892 5894 5895 5897 5898 5900 5902 5903 5905 5906 5907 5908 5910 5912 5914 5916 5917 5919 5921 5922 5922 5923 5924 5924 5925 5925 5925 5926 5927 5927 5928 5928 5928 5929 5930 5930 5931 5931 5931 5932 5932 5932 5932 5932 5932 5932 5932 5932 5932 5932 5932 5933 5932 5932 5932 5932 5932 5932 5931 5931 5930 5929 5928 5927 5928 5928 5928 5930 5931 5932 5933 5932
5868 5869 5870 5870 5871 5872 5874 5876 5879 5881 5884 5886 5889 5890 5891 5893 5895 5897 5899 5900 5902 5903 5904 5905 5906 5908 5910 5912 5914 5915 5917 5919 5920 5921 5922 5922 5923 5923 5924 5924 5925 5925 5926 5927 5927 5927 5928 5928 5929 5929 5930 5930 5930 5930 5930 5931 5931 5931 5931 5931 5931 5931 5931 5932 5932 5932 5931 5931 5931 5931 5931 5931 5930 5930 5929 5928 5928 5928 5928 5928 5927 5927 5928 5929 5929
5864 5866 5867 5868 5869 5869 5871 5874 5876 5879 5881 5884 5886 5887 5889 5891 5893 5894 5897 5899 5900 5901 5902 5903 5905 5906 5908 5910 5912 5913 5915 5916 5918 5919 5920 5921 5921 5922 5923 5923 5924 5924 5925 5925 5926 5926 5927 5927 5927 5928 5928 5929 5929 5929 5929 5929 5929 5929 5930 5930 5930 5930 5930 5931 5931 5930 5930 5930 5930 5930 5930 5929 5929 5929 5928 5928 5927 5927 5928 5927 5926 5925 5926 5926 5926
5858 5860 5862 5865 5866 5867 5869 5872 5875 5877 5878 5880 5882 5884 5886 5888 5889 5891 5894 5896 5898 5899 5900 5902 5903 5904 5906 5908 5910 5911 5913 5914 5915 5917 5918 5919 5919 5920 5921 5922 5922 5923 5923 5924 5924 5925 5925 5925 5925 5925 5926 5927 5927 5928 5928 5928 5928 5928 5929 5929 5929 5929 5929 5929 5929 5929 5929 5929 5928 5928 5928 5927 5927 5927 5927 5926 5926 5925 5926 5926 5925 5924 5924 5923 5924
5856 5856 5858 5860 5863 5865 5867 5870 5873 5874 5875 5877 5878 5879 5882 5885 5887 5887 5889 5892 5895 5897 5898 5900 5901 5902 5904 5905 5907 5909 5910 5912 5913 5914 5915 5916 5917 5918 5919 5920 5920 5921 5922 5922 5922 5923 5923 5923 5923 5923 5924 5925 5926 5927 5929 5929 5928 5927 5928 5928 5928 5928 5928 5928 5928 5928 5928 5927 5927 5927 5926 5926 5926 5926 5926 5925 5925 5925 5924 5924 5923 5922 5922 5922 5922
5856 5855 5855 5856 5859 5863 5865 5868 5869 5871 5872 5874 5875 5875 5878 5881 5883 5884 5885 5888 5892 5894 5896 5897 5898 5900 5902 5903 5905 5906 5908 5909 5910 5911 5912 5913 5914 5916 5917 5918 5919 5919 5919 5920 5920 5920 5921 5921 5921 5922 5924 5924 5924 5925 5927 5928 5927 5927 5927 5927 5926 5926 5926 5926 5926 5926 5926 5926 5926 5926 5926 5925 5926 5926 5925 5925 5925 5924 5924 5923 5923 5922 5921 5921 5921
5856 5856 5855 5854 5856 5860 5863 5865 5867 5868 5869 5871 5873 5874 5877 5879 5880 5881 5883 5886 5889 5891 5893 5895 5897 5899 5901 5902 5903 5904 5905 5906 5907 5908 5909 5911 5912 5913 5914 5915 5916 5916 5917 5917 5918 5918 5919 5919 5920 5921 5923 5923 5923 5922 5923 5923 5924 5925 5926 5926 5924 5924 5925 5925 5925 5925 5925 5925 5925 5925 5925 5925 5926 5926 5925 5926 5926 5926 5925 5924 5923 5922 5921 5921 5920
5854 5855 5854 5854 5856 5858 5860 5862 5863 5864 5866 5868 5871 5873 5875 5876 5877 5879 5882 5885 5886 5888 5890 5893 5895 5897 5899 5900 5900 5901 5903 5904 5905 5906 5907 5908 5910 5911 5911 5912 5913 5913 5914 5914 5915 5916 5917 5917 5918 5919 5920 5921 5921 5921 5922 5921 5921 5921 5923 5923 5923 5923 5922 5922 5922 5922 5922 5923 5923 5923 5924 5925 5926 5926 5926 5926 5926 5926 5926 5926 5924 5922 5922 5920 5919
5851 5852 5852 5853 5854 5856 5858 5860 5861 5862 5863 5865 5867 5870 5871 5872 5874 5877 5880 5883 5885 5886 5887 5888 5890 5892 5894 5897 5898 5900 5902 5902 5902 5904 5905 5906 5908 5909 5909 5910 5910 5910 5911 5912 5913 5913 5914 5916 5916 5917 5917 5918 5918 5919 5920 5920 5919 5918 5919 5920 5921 5920 5920 5919 5919 5919 5920 5921 5921 5922 5922 5923 5924 5925 5925 5924 5924 5924 5924 5925 5924 5923 5922 5920 5919
5847 5848 5850 5851 5851 5853 5855 5857 5859 5860 5860 5861 5862 5865 5868 5869 5871 5874 5877 5879 5881 5883 5884 5885 5887 5888 5891 5895 5898 5899 5899 5899 5899 5900 5900 5901 5903 5905 5906 5907 5907 5908 5909 5909 5910 5911 5912 5913 5914 5914 5915 5915 5915 5916 5917 5917 5917 5917 5917 5918 5918 5918 5917 5917 5918 5918 5918 5918 5918 5919 5919 5919 5921 5922 5922 5920 5919 5919 5920 5921 5922 5922 5921 5920 5919
5843 5844 5846 5847 5848 5850 5851 5854 5856 5854 5851 5853 5856 5859 5863 5865 5867 5870 5872 5873 5876 5879 5880 5881 5884 5886 5888 5891 5893 5894 5894 5895 5895 5895 5896 5897 5898 5900 5902 5903 5904 5905 5906 5906 5906 5907 5909 5910 5910 5911 5912 5912 5912 5913 5914 5914 5914 5914 5914 5915 5916 5916 5915 5915 5916 5915 5915 5914 5914 5915 5916 5916 5917 5918 5918 5916 5915 5915 5915 5916 5917 5918 5919 5918 5918
5840 5841 5843 5844 5845 5846 5847 5850 5851 5844 5839 5843 5849 5853 5857 5860 5862 5865 5867 5868 5871 5874 5876 5877 5880 5883 5886 5887 5889 5889 5890 5891 5892 5893 5894 5895 5896 5897 5898 5900 5901 5902 5902 5902 5903 5904 5905 5906 5907 5907 5908 5909 5909 5910 5910 5910 5910 5910 5911 5911 5912 5913 5913 5912 5912 5912 5912 5912 5912 5913 5913 5914 5914 5914 5913 5913 5914 5914 5914 5914 5913 5914 5914 5915 5915
5837 5838 5840 5841 5842 5843 5843 5843 5842 5838 5836 5840 5845 5848 5852 5854 5856 5860 5864 5866 5868 5870 5872 5873 5876 5880 5884 5885 5884 5885 5886 5888 5889 5891 5892 5892 5893 5894 5895 5896 5897 5897 5898 5898 5899 5900 5901 5902 5903 5903 5905 5905 5906 5906 5906 5907 5907 5907 5907 5908 5908 5909 5909 5909 5909 5909 5909 5909 5909 5909 5910 5911 5911 5910 5909 5910 5911 5912 5912 5912 5912 5911 5910 5911 5911
5834 5835 5837 5838 5839 5841 5841 5838 5836 5836 5838 5841 5843 5846 5848 5850 5852 5855 5860 5863 5866 5868 5869 5870 5873 5878 5881 5882 5880 5880 5882 5884 5886 5888 5889 5889 5890 5890 5891 5891 5892 5893 5894 5894 5895 5896 5897 5898 5898 5899 5901 5902 5902 5902 5903 5903 5903 5903 5903 5904 5905 5905 5905 5905 5906 5906 5906 5906 5905 5905 5906 5907 5907 5907 5907 5908 5908 5908 5908 5909 5909 5908 5908 5907 5907
5830 5831 5834 5836 5837 5838 5839 5837 5835 5834 5835 5836 5839 5842 5845 5847 5849 5852 5855 5860 5863 5865 5866 5867 5869 5872 5876 5878 5877 5877 5879 5881 5883 5884 5885 5886 5886 5886 5887 5888 5890 5891 5891 5892 5892 5893 5894 5895 5894 5895 5896 5897 5897 5898 5898 5898 5898 5898 5899 5900 5901 5901 5901 5901 5902 5903 5903 5902 5902 5902 5902 5902 5903 5903 5904 5904 5905 5905 5904 5905 5905 5905 5905 5904 5904
5826 5828 5831 5833 5835 5836 5837 5836 5835 5834 5833 5834 5836 5838 5841 5843 5846 5849 5852 5856 5859 5862 5863 5864 5865 5867 5869 5873 5875 5875 5877 5878 5879 5881 5882 5882 5883 5883 5885 5886 5888 5889 5889 5888 5888 5889 5890 5891 5891 5892 5892 5892 5892 5893 5893 5893 5893 5894 5894 5895 5896 5897 5897 5897 5898 5898 5898 5898 5898 5899 5899 5899 5899 5900 5900 5900 5901 5901 5901 5901 5901 5901 5901 5900 5900
5823 5824 5827 5830 5832 5834 5834 5834 5834 5834 5834 5834 5835 5837 5839 5842 5844 5846 5849 5853 5855 5857 5859 5860 5862 5864 5866 5869 5871 5872 5873 5875 5876 5878 5879 5879 5880 5881 5882 5884 5885 5885 5885 5884 5883 5884 5886 5886 5887 5888 5888 5888 5887 5887 5887 5887 5888 5889 5890 5891 5892 5892 5893 5893 5894 5894 5894 5893 5894 5895 5896 5896 5895 5895 5896 5896 5897 5897 5897 5897 5897 5897 5897 5896 5895
5822 5823 5825 5827 5829 5831 5832 5832 5833 5833 5834 5834 5834 5836 5838 5840 5842 5844 5846 5849 5851 5853 5855 5857 5859 5860 5862 5865 5866 5867 5869 5870 5872 5874 5875 5875 5876 5877 5878 5880 5881 5881 5880 5880 5880 5881 5881 5881 5881 5883 5883 5883 5883 5882 5882 5883 5883 5884 5885 5886 5887 5888 5889 5889 5889 5890 5890 5889 5890 5891 5891 5892 5892 5891 5891 5892 5892 5893 5893 5893 5893 5893 5892 5891 5891
5820 5821 5823 5825 5828 5829 5830 5831 5832 5833 5832 5832 5833 5834 5836 5838 5839 5842 5844 5846 5847 5848 5851 5853 5854 5856 5858 5860 5861 5863 5864 5866 5867 5869 5870 5871 5872 5873 5874 5875 5876 5876 5877 5877 5878 5878 5877 5875 5876 5877 5877 5878 5879 5878 5877 5877 5878 5879 5880 5881 5882 5883 5884 5884 5884 5885 5885 5884 5885 5885 5886 5886 5887 5887 5887 5887 5887 5888 5888 5888 5889 5888 5887 5887 5886
5819 5820 5822 5824 5826 5828 5829 5830 5831 5832 5832 5832 5832 5833 5834 5836 5837 5840 5842 5843 5844 5845 5846 5848 5849 5851 5853 5855 5857 5859 5861 5862 5864 5865 5866 5866 5867 5869 5870 5871 5872 5873 5873 5873 5875 5875 5873 5871 5871 5872 5871 5873 5874 5873 5872 5872 5873 5874 5875 5876 5876 5877 5878 5879 5879 5879 5879 5879 5879 5879 5880 5881 5882 5882 5882 5882 5882 5883 5883 5883 5884 5883 5883 5882 5882
5818 5819 5820 5822 5824 5826 5828 5829 5830 5831 5832 5833 5833 5833 5834 5835 5837 5838 5839 5840 5841 5842 5843 5845 5847 5848 5850 5852 5853 5855 5857 5859 5860 5862 5862 5863 5864 5866 5867 5868 5869 5870 5870 5871 5872 5872 5869 5867 5868 5868 5867 5868 5869 5869 5867 5867 5868 5869 5870 5871 5871 5871 5871 5872 5872 5873 5873 5873 5873 5874 5875 5876 5877 5877 5877 5877 5877 5877 5877 5878 5878 5878 5878 5878 5877
5818 5818 5819 5820 5822 5824 5826 5828 5829 5830 5831 5832 5833 5834 5834 5834 5835 5837 5838 5839 5840 5841 5842 5844 5845 5846 5848 5849 5850 5852 5854 5856 5857 5858 5859 5860 5861 5863 5863 5865 5866 5867 5867 5868 5869 5866 5864 5863 5864 5864 5864 5864 5864 5863 5863 5863 5864 5865 5865 5866 5866 5866 5866 5866 5866 5866 5866 5866 5867 5868 5869 5869 5870 5871 5871 5871 5871 5871 5871 5871 5871 5872 5872 5872 5872
5817 5817 5817 5819 5821 5822 5824 5826 5828 5829 5830 5832 5833 5834 5835 5835 5835 5836 5837 5838 5840 5841 5843 5844 5844 5845 5846 5847 5848 5849 5852 5853 5854 5855 5857 5858 5859 5859 5860 5861 5862 5863 5864 5864 5863 5862 5862 5862 5862 5862 5862 5861 5859 5858 5858 5859 5860 5862 5862 5862 5862 5862 5861 5860 5860 5860 5860 5861 5862 5863 5862 5862 5864 5864 5865 5865 5865 5864 5864 5864 5864 5865 5866 5866 5867
5816 5816 5816 5818 5819 5821 5823 5824 5826 5828 5829 5831 5832 5833 5834 5835 5835 5836 5837 5838 5839 5840 5841 5843 5844 5844 5845 5845 5846 5847 5849 5851 5852 5853 5854 5855 5856 5857 5858 5858 5859 5860 5860 5860 5860 5860 5860 5860 5860 5860 5860 5859 5857 5856 5856 5857 5858 5859 5859 5858 5858 5857 5857 5856 5856 5856 5856 5856 5857 5857 5857 5857 5857 5858 5858 5858 5858 5857 5857 5857 5857 5858 5859 5860 5860
5814 5815 5815 5816 5818 5820 5821 5823 5824 5826 5828 5829 5830 5832 5833 5834 5835 5835 5836 5837 5838 5839 5840 5841 5842 5843 5844 5844 5845 5846 5847 5848 5849 5850 5851 5852 5853 5854 5855 5855 5856 5856 5857 5857 5857 5857 5857 5857 5858 5858 5858 5857 5855 5855 5854 5855 5855 5855 5855 5855 5854 5853 5853 5853 5852 5852 5852 5852 5852 5852 5852 5852 5852 5852 5852 5852 5851 5850 5850 5851 5851 5851 5852 5852 5853
5813 5814 5815 5816 5817 5818 5820 5821 5823 5824 5826 5828 5829 5830 5832 5833 5834 5835 5836 5837 5837 5838 5839 5840 5840 5841 5842 5843 5844 5844 5845 5846 5847 5848 5848 5849 5850 5851 5851 5852 5852 5853 5853 5853 5853 5854 5854 5854 5854 5854 5854 5853 5852 5851 5851 5850 5850 5851 5851 5851 5850 5850 5849 5849 5849 5848 5848 5848 5848 5847 5847 5846 5846 5846 5846 5845 5845 5845 5845 5845 5845 5845 5845 5845 5845
5810 5812 5813 5815 5816 5817 5818 5820 5821 5823 5825 5826 5828 5829 5831 5832 5833 5834 5835 5836 5837 5837 5838 5838 5839 5839 5840 5841 5842 5842 5843 5844 5844 5845 5845 5846 5847 5847 5847 5848 5848 5849 5849 5849 5849 5850 5850 5849 5849 5849 5849 5848 5848 5847 5847 5846 5846 5847 5846 5846 5846 5846 5845 5845 5844 5844 5844 5843 5843 5842 5841 5841 5841 5841 5840 5840 5840 5840 5840 5839 5839 5839 5839 5839 5839
5807 5809 5811 5812 5814 5815 5817 5818 5820 5821 5823 5825 5827 5828 5829 5831 5831 5832 5833 5834 5835 5836 5836 5837 5837 5838 5838 5839 5839 5840 5841 5841 5842 5842 5843 5843 5843 5844 5844 5844 5844 5845 5845 5845 5845 5845 5845 5845 5845 5845 5844 5844 5844 5843 5843 5843 5842 5842 5842 5841 5841 5841 5841 5840 5839 5839 5839 5838 5837 5837 5836 5836 5835 5835 5835 5835 5835 5835 5835 5834 5834 5834 5833 5833 5832
5805 5807 5808 5810 5811 5813 5815 5817 5818 5820 5822 5823 5825 5827 5828 5829 5829 5830 5831 5832 5833 5834 5834 5835 5835 5835 5836 5836 5837 5837 5838 5838 5839 5839 5840 5840 5840 5840 5840 5840 5841 5841 5841 5841 5841 5841 5841 5841 5841 5841 5840 5840 5839 5839 5839 5838 5838 5838 5837 5837 5836 5836 5836 5836 5835 5834 5834 5833 5832 5832 5831 5831 5830 5830 5830 5830 5829 5829 5829 5829 5828 5828 5828 5827 5826
5802 5804 5806 5807 5809 5810 5813 5815 5816 5818 5819 5821 5823 5824 5826 5827 5827 5828 5829 5830 5831 5831 5832 5832 5833 5833 5833 5833 5834 5834 5835 5835 5835 5836 5836 5836 5836 5836 5836 5837 5837 5837 5837 5837 5837 5837 5837 5837 5837 5837 5837 5836 5836 5835 5835 5835 5834 5834 5834 5833 5833 5832 5832 5831 5831 5831 5830 5829 5828 5828 5827 5827 5826 5825 5825 5825 5824 5824 5824 5824 5823 5823 5822 5821 5821
5800 5802 5803 5804 5806 5808 5810 5812 5814 5816 5817 5818 5820 5822 5823 5824 5825 5826 5827 5828 5828 5829 5829 5829 5830 5830 5831 5831 5831 5832 5832 5832 5832 5833 5833 5833 5833 5833 5833 5833 5833 5833 5833 5833 5833 5833 5833 5833 5833 5832 5832 5832 5832 5831 5831 5831 5830 5830 5830 5830 5829 5829 5828 5828 5827 5827 5826 5825 5825 5824 5823 5823 5822 5821 5821 5821 5820 5820 5819 5819 5818 5818 5817 5816 5816